User: anonymous
Location: Unspecified
(0.0000°N, 0.0000°E)
Time: 12:22:45
(UTC+00:00)
Language:

NAVSTAR 64 (USA 206) - Orbit

View from above orbital plane
View from above orbital plane
View from above satellite
View from above satellite

Ground track
Ground track

The orbit data is extracted from the following two-line orbital elements,

1 35752U 09043A   14265.18966063 -.00000031  00000-0  00000+0 0  9056
2 35752 054.2584 200.0183 0037795 016.4344 253.9494 02.00561317 37392
Epoch (UTC): 22 September 2014 04:33:06
Eccentricity: 0.0037795
inclination: 54.2584°
perigee height: 20082 km
apogee height: 20282 km
right ascension of ascending node: 200.0183°
argument of perigee: 16.4344°
revolutions per day: 2.00561317
mean anomaly at epoch: 253.9494°
orbit number at epoch: 3739

The dashed part of the orbit path shows where the satellite is in the earth's shadow,  

DLR